Welcome to Bucharest LROP 190800Z 25003KT 4500 BR NSC M08/M10 Q1024 BECMG 9999 NSW

Down The Danube 9, 11 April 2020

63

arrivals

44

departures

16z-21z

5 hours full ATC

 

Please note!

This website is intended for flight simulation only. Information presented here should not be used in real life flight situations.